Location: Bishopstone
(51.0167°N, 1.9000°W)
Time: 00:35:22
(UTC+00:00)

ERS-1 Rocket - Pass Details

Date: 16 September 2019
Orbit: 754 x 757 km, 98.5° (Epoch: 13 October)

Event Time Altitude Azimuth Distance (km) Brightness Sun altitude
Exits shadow 20:00:24 19° 77° (ENE) 1,760 4.4 -16.0°
Maximum altitude 20:01:42 21° 57° (ENE) 1,670 4.5 -16.2°
Drops below altitude 10° 20:05:22 10° 10° (N) 2,294 5.7 -16.7°
Sets 20:08:10 0° 355° (N) 3,225 6.7 -17.1°
